Weather History for San Antonio, TX

Change the Weather History Date:

Thursday, November 1, 2012

  Actual Average Record
Temperature  
Mean Temperature 71 °F 66 °F  
Max Temperature 83 °F 77 °F 88 °F (1945)
Min Temperature 58 °F 55 °F 31 °F (1993)
Degree Days  
Heating Degree Days 0 3  
Month to date heating degree days 0 3  
Since 1 July heating degree days 55 36  
Cooling Degree Days 6 4  
Month to date cooling degree days 6 4  
Year to date cooling degree days 3487 3059  
Growing Degree Days 20 (Base 50)    
Moisture  
Dew Point 63 °F    
Average Humidity 70    
Maximum Humidity 100    
Minimum Humidity 40    
Precipitation  
Precipitation 0.00 in 0.10 in 4.87 in (1977)
Month to date precipitation 0.00 0.10  
Year to date precipitation 38.76 28.18  
Snow  
Snow 0.00 in - - ()
Month to date snowfall 0.0  
Since 1 July snowfall 0.0  
Since 1 September snowfall 0.0  
Snow Depth 0.00 in    
Sea Level Pressure  
Sea Level Pressure 30.01 in    
Wind  
Wind Speed 4 mph (SW)    
Max Wind Speed 12 mph    
Max Gust Speed 17 mph    
Visibility 7 miles    
Events Fog    
T = Trace of Precipitation, MM = Missing Value Source: NWS Daily Summary

Daily Weather History Graph

Daily Weather History Graph

Search for Another Location

Airport:

Trip Planner

Search our weather history database for the weather conditions in past years. The results will help you decide how hot, cold, wet, or windy it might be!

Date:

Astronomy

Nov. 01, 2012 Rise Set
Actual Time 7:47 AM CDT 6:46 PM CDT
Civil Twilight 7:22 AM CDT 7:11 PM CDT
Nautical Twilight 6:54 AM CDT 7:39 PM CDT
Astronomical Twilight 6:26 AM CDT 8:07 PM CDT
Moon 8:54 PM CDT (11/1) 10:12 AM CDT (11/1)
Length of Visible Light 11h 48m
Length of Day
10h 59m
Waning Gibbous, 93% of the Moon is Illuminated
Nov 1
Waning Gibbous
Nov 6
Last Quarter
Nov 13
New
Nov 20
First Quarter
Nov 28
Full

Hourly Weather History & Observations

Time (CDT) Temp. Heat Index Dew Point Humidity Pressure Visibility Wind Dir Wind Speed Gust Speed Precip Events Conditions
12:53 AM 60.1 °F - 57.9 °F 93% 30.02 in 10.0 mi NW 3.5 mph - N/A   Clear
1:53 AM 59.0 °F - 57.0 °F 93% 30.02 in 10.0 mi WNW 4.6 mph - N/A   Clear
2:53 AM 57.9 °F - 55.9 °F 93% 30.01 in 10.0 mi WNW 5.8 mph - N/A   Partly Cloudy
3:07 AM 57.2 °F - 55.4 °F 94% 30.05 in 10.0 mi NW 3.5 mph - N/A   Mostly Cloudy
3:53 AM 60.1 °F - 57.9 °F 93% 30.00 in 10.0 mi WNW 5.8 mph - N/A   Overcast
4:53 AM 63.0 °F - 61.0 °F 93% 29.99 in 10.0 mi Calm Calm - N/A   Overcast
5:21 AM 64.4 °F - 62.6 °F 94% 30.04 in 3.0 mi Variable 3.5 mph - N/A   Overcast
5:32 AM 64.4 °F - 64.4 °F 100% 30.04 in 1.0 mi West 3.5 mph - N/A   Overcast
5:42 AM 66.2 °F - 66.2 °F 100% 30.04 in 0.2 mi West 4.6 mph - N/A Fog Fog
5:53 AM 64.0 °F - 64.0 °F 100% 29.99 in 0.2 mi WNW 3.5 mph - N/A Fog Fog
5:59 AM 64.4 °F - 64.4 °F 100% 30.04 in 0.1 mi Calm Calm - N/A Fog Fog
6:10 AM 64.4 °F - 64.4 °F 100% 30.04 in 0.1 mi Calm Calm - N/A Fog Fog
6:53 AM 66.0 °F - 66.0 °F 100% 30.01 in 0.1 mi Calm Calm - N/A Fog Fog
7:15 AM 66.2 °F - 66.2 °F 100% 30.05 in 0.2 mi Calm Calm - N/A   Mist
7:53 AM 66.9 °F - 66.9 °F 100% 30.01 in 0.2 mi Calm Calm - N/A   Overcast
8:07 AM 68.0 °F - 68.0 °F 100% 30.06 in 1.2 mi West 3.5 mph - N/A   Overcast
8:46 AM 68.0 °F - 68.0 °F 100% 30.07 in 3.0 mi West 5.8 mph - N/A   Overcast
8:53 AM 68.0 °F - 66.9 °F 96% 30.04 in 3.0 mi SW 4.6 mph - N/A   Overcast
9:53 AM 69.1 °F - 68.0 °F 96% 30.06 in 5.0 mi Calm Calm - N/A   Overcast
10:22 AM 71.6 °F - 68.0 °F 88% 30.10 in 10.0 mi Calm Calm - N/A   Mostly Cloudy
10:53 AM 73.9 °F - 68.0 °F 82% 30.06 in 10.0 mi Variable 3.5 mph - N/A   Mostly Cloudy
11:53 AM 77.0 °F - 66.9 °F 71% 30.05 in 10.0 mi South 5.8 mph - N/A   Scattered Clouds
12:53 PM 80.1 °F 82.3 °F 66.9 °F 64% 30.03 in 10.0 mi Variable 5.8 mph - N/A   Scattered Clouds
1:53 PM 81.0 °F 81.9 °F 62.1 °F 52% 30.00 in 10.0 mi SSW 9.2 mph - N/A   Scattered Clouds
2:53 PM 82.0 °F 82.1 °F 59.0 °F 45% 29.98 in 10.0 mi South 6.9 mph - N/A   Partly Cloudy
3:53 PM 81.0 °F 81.7 °F 61.0 °F 50% 29.96 in 10.0 mi South 5.8 mph 17.3 mph N/A   Scattered Clouds
4:53 PM 82.0 °F 81.6 °F 55.9 °F 41% 29.94 in 10.0 mi SSE 5.8 mph - N/A   Scattered Clouds
5:53 PM 80.1 °F 80.7 °F 59.0 °F 48% 29.94 in 10.0 mi South 6.9 mph - N/A   Scattered Clouds
6:53 PM 75.9 °F - 59.0 °F 56% 29.94 in 10.0 mi SE 3.5 mph - N/A   Partly Cloudy
7:53 PM 73.0 °F - 59.0 °F 61% 29.95 in 10.0 mi Calm Calm - N/A   Scattered Clouds
8:53 PM 71.1 °F - 61.0 °F 70% 29.96 in 10.0 mi Calm Calm - N/A   Scattered Clouds
9:53 PM 69.1 °F - 61.0 °F 75% 29.98 in 10.0 mi Calm Calm - N/A   Scattered Clouds
10:53 PM 69.1 °F - 61.0 °F 75% 29.99 in 10.0 mi ESE 3.5 mph - N/A   Scattered Clouds
11:53 PM 70.0 °F - 63.0 °F 78% 29.98 in 10.0 mi South 6.9 mph - N/A   Scattered Clouds